sat.trackr.live / text

‹ back to catalog

STARLINK-34261

NORAD 64764 · 2025-147K

PAYLOAD ACTIVE UNKNOWN

§ Identity

Operator
Country
US
Launch date
2025-07-08
Launch site
AFETR
Launch vehicle
Mass (kg)
RCS (m²)

Purposes: comms

External: N2YO · Heavens-Above · Gunter

§ Orbital elements

Epoch: 2026-05-24T17:09:55.179072Z

Period
93.85 min
Inclination
53.1574°
Eccentricity
0.0000809
Mean motion
15.34392507 rev/d
Perigee alt
462.2 km
Apogee alt
463.3 km
Semi-major
6,840.9 km
B*
5.0542e-4
RAAN
248.7666°
Arg perigee
85.2917°
Mean anomaly
274.8178°
Rev number
5,044

§ Raw data

STARLINK-342611 64764U 25147K   26144.71522198  .00016734  00000+0  50542-3 0  99972 64764  53.1574 248.7666 0000809  85.2917 274.8178 15.34392507 50441

JSON: /api/v1/satellites/64764 · /tle

For live sub-satellite position, see the globe view (requires WebGL).

§ Visibility from observer

Set your observer location to see the next 7 days of passes ≥ 10°. The values pass through the URL so the page stays shareable.

No JS? Fill the form by hand. The geolocation button needs JavaScript.